Temperature
19 21 21 22 22 22 21 20 19 20 20 20 19 19 20 21 21 21 21 21 20 21 21 20 20 20 20 20 19 19 19 18 18 18 18 18 17 17 17 17 17 17 17 16
19 21 21 21 22 22 22 21 21 20 20 19 19 19 19 20 20 20 20 20 20 20 20 20 20 20 20 20 20 19 19 19 18 18 18 18 17 17 17 17 17 17 17 16
18 19 20 20 20 20 20 20 20 20 19 18 18 18 18 19 19 19 19 20 20 20 20 20 20 20 20 20 20 19 19 19 19 18 18 18 18 17 17 17 17 17 17 17
16 18 19 19 19 20 20 19 19 19 19 18 18 18 18 18 19 19 19 19 19 20 20 20 20 20 20 20 19 19 19 18 18 18 18 18 17 17 17 17 17 17 16 16
15 16 18 19 18 18 18 18 18 18 18 18 18 18 17 17 18 18 18 18 19 19 19 19 19 19 19 19 19 18 18 18 18 18 18 17 17 17 17 16 16 16 16 16
15 17 17 17 18 18 18 17 17 17 17 18 18 16 16 16 17 17 18 18 18 18 19 19 19 19 19 18 18 18 18 18 18 17 17 17 17 16 16 16 16 16 15 15
15 16 16 16 17 18 18 17 16 16 17 17 16 16 16 16 16 17 17 17 17 17 17 17 18 18 18 18 17 17 17 17 17 17 16 16 16 16 15 15 15 15 15 15
15 15 16 16 16 16 16 16 16 16 16 16 15 15 15 16 16 16 16 16 16 16 16 16 17 17 17 16 16 16 16 16 16 16 16 15 15 15 15 15 14 14 14 14
14 15 15 15 15 16 16 16 16 16 16 15 15 15 15 15 15 15 15 15 15 16 16 16 16 16 16 15 15 15 15 15 15 15 15 15 15 14 14 14 14 14 14 13
14 14 14 15 16 16 16 16 16 16 16 15 15 15 15 15 15 15 15 15 15 15 15 15 15 15 15 15 15 15 15 14 14 14 14 14 14 14 14 13 13 13 13 13
14 14 14 15 16 16 16 16 16 16 15 15 15 15 15 14 14 14 14 14 14 14 14 14 14 14 14 14 14 14 14 14 13 13 13 13 13 13 13 13 13 13 13 13
14 14 14 14 16 16 16 16 16 16 15 15 15 15 14 14 14 14 14 14 14 14 13 13 13 13 13 13 13 13 13 13 13 13 13 13 13 13 13 13 13 12 12 12
15 15 15 15 15 16 15 15 15 15 15 15 14 14 14 14 14 14 13 13 13 13 13 13 13 13 12 12 12 12 12 12 12 12 12 12 12 12 12 12 12 12 12 12
15 15 15 15 15 15 15 15 15 15 14 14 14 14 14 14 13 13 13 13 13 13 12 12 12 12 12 12 12 12 12 12 12 12 12 12 12 12 12 12 12 12 12 11
15 15 15 15 15 15 15 15 14 14 14 14 14 14 14 13 13 13 13 13 13 12 12 12 12 12 12 12 11 11 11 11 11 11 11 11 11 11 11 11 11 11 11 11
14 14 14 14 14 14 14 14 14 14 14 14 14 14 13 13 13 13 12 12 12 12 12 12 12 11 11 11 11 11 11 11 11 11 11 11 11 11 11 11 11 10 10 10
14 14 14 13 14 14 14 14 14 14 13 13 13 13 13 13 13 12 12 12 12 12 11 11 11 11 11 11 11 11 11 10 10 10 10 10 10 10 10 10 10 10 10 9
14 14 14 14 14 13 13 13 13 13 13 13 13 13 13 12 12 12 12 11 11 11 11 11 11 11 11 10 10 10 10 10 10 10 10 10 10 10 9 9 9 9 9 9
13 13 13 13 13 13 13 13 13 13 13 13 12 12 12 12 12 11 11 11 11 11 10 10 10 10 10 10 10 10 10 10 9 9 9 9 9 9 9 8 8 8 8 8
13 13 13 13 13 13 13 13 12 12 12 12 12 12 11 11 11 11 11 11 10 10 10 10 10 10 9 9 9 9 9 9 9 8 8 8 8 8 8 7 7 7 7 7
12 12 12 12 12 12 12 12 12 12 11 11 11 11 11 11 11 10 10 10 10 9 9 9 9 9 9 8 8 8 8 8 8 8 7 7 7 7 7 7 6 6 6 6
11 11 12 12 12 11 11 11 11 11 11 11 11 10 10 10 10 10 9 9 9 9 9 8 8 8 8 8 7 7 7 7 7 7 6 6 6 6 6 6 5 5 5 5
11 11 11 11 11 11 11 11 11 11 10 10 10 10 10 9 9 9 9 8 8 8 8 8 7 7 7 7 7 7 6 6 6 6 6 5 5 5 5 5 5 5 5 4
10 10 10 10 10 10 10 10 10 10 10 9 9 9 9 9 8 8 8 8 7 7 7 7 7 6 6 6 6 6 6 5 5 5 5 5 5 4 4 4 4 4 4 4
10 10 10 10 10 9 9 9 9 9 9 9 8 8 8 8 8 7 7 7 7 7 6 6 6 6 5 5 5 5 5 5 4 4 4 4 4 4 4 3 3 3 3 3
10 9 9 9 9 9 9 8 8 8 8 8 7 7 7 7 7 7 6 6 6 6 6 5 5 5 5 5 4 4 4 4 4 4 3 3 3 3 3 3 3 3 3 3
9 9 9 8 8 8 8 8 7 7 7 7 7 6 6 6 6 6 6 5 5 5 5 4 4 4 4 4 4 4 4 3 3 3 3 3 3 3 3 3 3 3 2 2
Wind_Speed
5 5 3 4 4 3 3 6 7 7 7 8 8 7 5 5 5 6 7 10 12 12 11 11 11 11 12 12 12 12 11 11 11 9 9 8 8 8 9 9 10 9 9 9
2 2 2 2 3 3 3 2 4 5 4 5 3 3 1 2 5 6 6 7 9 10 10 11 12 12 12 11 12 11 12 12 11 10 9 10 9 8 8 8 8 8 9 9
2 3 3 2 3 2 1 1 4 5 5 4 4 3 2 3 4 5 6 6 7 9 9 10 10 10 12 11 11 11 10 10 10 10 11 11 11 9 9 9 8 8 9 9
1 2 3 4 1 2 2 2 2 2 4 7 8 5 5 4 6 6 6 5 4 5 5 5 6 7 8 8 9 10 9 8 8 8 8 8 8 9 8 7 7 7 7 7
3 3 3 2 3 3 1 2 3 3 4 8 10 10 8 7 7 7 7 6 5 4 5 4 4 6 7 7 7 7 7 7 7 7 7 7 7 7 6 6 6 6 5 6
3 3 3 3 4 5 2 0 4 4 4 6 6 6 3 4 8 10 10 8 7 6 6 5 3 5 8 7 7 6 6 6 5 6 6 6 6 5 4 5 6 6 5 5
2 2 3 4 6 3 3 3 0 4 4 6 4 5 5 6 10 10 10 9 9 9 8 5 4 6 7 6 5 5 4 4 4 4 5 5 4 3 3 3 4 5 5 4
1 1 3 5 3 1 3 2 3 6 7 9 10 11 9 10 11 11 11 11 10 10 9 7 6 8 7 5 3 4 4 4 3 3 4 4 5 4 4 4 3 3 3 3
2 3 3 2 1 1 3 5 5 8 9 10 12 10 10 9 10 10 10 9 8 10 10 9 8 8 8 4 4 5 6 4 3 2 1 2 3 3 2 3 3 3 3 3
1 2 2 2 1 2 4 6 7 9 9 10 11 11 10 9 9 9 9 8 8 10 10 9 8 8 7 6 7 8 7 5 4 4 3 3 2 2 2 3 3 3 3 4
2 1 2 4 2 4 7 8 9 10 10 10 13 12 11 9 8 8 8 7 8 9 9 8 7 8 8 7 7 8 7 5 4 3 3 3 2 1 1 2 4 4 4 4
3 3 3 1 3 8 10 10 10 12 11 10 11 12 11 9 8 8 8 8 8 8 8 7 7 7 7 6 7 7 6 5 3 3 2 2 2 3 4 2 3 4 5 4
3 4 6 5 6 9 11 11 13 13 13 12 11 11 11 9 8 8 9 8 8 7 7 6 7 6 5 5 6 7 5 4 3 3 3 2 2 2 3 5 4 3 4 5
7 9 8 7 8 10 13 13 14 14 12 11 11 10 10 9 8 8 7 6 7 7 6 6 6 5 4 4 5 5 5 4 4 2 2 2 2 1 1 1 2 3 3 3
7 8 9 9 11 11 11 13 14 12 11 10 9 10 10 9 8 7 5 6 7 7 6 5 5 4 3 4 4 4 4 3 3 2 2 2 2 2 1 1 1 2 2 3
9 11 12 13 12 11 10 11 11 9 9 9 8 8 8 8 7 7 6 6 6 5 3 3 3 3 3 4 4 4 4 5 4 2 2 3 3 2 2 2 2 2 2 2
10 8 10 11 10 9 9 9 8 8 8 8 7 7 7 8 7 6 5 4 5 3 3 3 2 3 4 4 4 3 4 4 6 4 3 3 3 2 2 1 1 1 2 2
8 8 9 9 9 9 8 7 7 7 6 6 6 6 7 6 5 4 4 5 6 6 5 3 3 4 5 5 4 4 4 3 3 3 3 3 3 2 2 2 2 2 2 3
10 10 9 9 8 8 7 7 6 6 6 6 7 7 5 4 4 4 4 5 5 4 3 4 5 6 5 6 5 3 4 4 4 3 3 4 3 3 3 2 2 2 2 3
10 10 10 10 9 8 7 7 7 6 5 6 7 7 6 4 4 4 5 4 2 0 1 2 4 4 5 6 6 4 4 4 4 4 4 4 3 3 3 2 2 2 2 3
9 10 10 10 9 8 7 7 7 6 6 6 6 5 4 4 4 4 5 3 3 3 3 4 3 3 4 5 6 4 4 4 4 4 4 4 4 4 4 3 3 3 3 3
9 8 9 8 8 6 5 5 6 6 6 5 5 5 5 4 4 4 3 1 1 3 3 3 2 3 5 5 4 4 4 4 4 4 4 3 3 4 4 4 4 4 3 4
7 6 6 6 5 4 5 6 6 5 5 5 5 4 4 3 2 3 1 1 1 3 3 2 3 5 6 4 4 4 4 4 4 4 4 4 4 3 3 4 4 4 4 5
5 5 5 5 6 8 7 6 6 6 6 6 5 4 4 3 3 2 1 1 3 4 3 3 5 6 6 3 3 3 4 4 4 4 4 4 4 4 4 4 4 5 5 6
3 4 6 7 7 5 5 5 6 7 6 5 6 5 4 3 2 2 2 3 4 4 3 4 6 7 4 3 3 3 3 3 4 4 4 4 4 4 4 5 5 5 5 5
4 4 4 4 4 3 4 4 4 4 4 4 4 4 4 3 3 3 3 4 5 5 4 4 4 5 4 4 4 4 4 4 5 4 5 4 4 5 5 5 6 5 5 6
6 5 5 5 5 4 4 4 4 3 3 3 3 3 3 3 3 4 4 3 4 4 4 3 3 3 4 4 4 4 4 4 4 4 4 4 5 5 5 6 5 5 5 6
Wind_Direction
242 245 227 242 262 226 199 190 192 216 199 219 218 209 199 186 170 170 176 180 182 183 183 184 183 183 184 186 184 182 180 187 193 190 187 187 187 191 191 188 189 188 189 193
304 291 290 292 307 294 253 208 193 170 223 235 216 194 198 157 138 146 166 175 179 179 179 183 185 183 181 182 182 177 181 190 191 188 188 193 193 192 189 190 193 188 194 198
268 304 356 299 291 303 242 245 173 183 211 185 127 129 147 131 123 135 154 163 176 179 177 184 188 183 181 182 177 176 184 191 192 191 193 198 197 190 193 195 192 194 200 199
163 55 217 242 341 12 127 53 45 134 155 153 136 113 75 89 108 111 114 116 128 144 159 171 175 177 174 168 169 173 177 184 185 186 192 194 191 194 198 196 197 201 206 208
142 175 254 307 15 12 37 23 10 90 131 136 120 89 57 51 77 89 97 102 103 111 127 128 131 149 145 147 150 157 173 184 186 187 187 184 191 198 195 191 197 202 202 206
132 159 210 244 303 302 188 81 8 75 130 139 114 103 97 70 79 78 78 74 72 68 74 97 128 141 136 143 146 163 178 181 179 175 172 181 193 200 192 193 197 194 202 208
150 192 251 276 300 320 150 194 105 95 109 105 93 114 120 94 82 79 79 74 70 68 63 60 80 111 121 124 139 158 153 147 149 161 166 172 176 180 173 179 188 194 201 214
113 157 270 318 345 117 185 168 134 101 100 98 98 94 91 86 84 81 76 71 71 72 63 53 69 90 100 103 106 98 101 105 120 145 164 160 155 166 166 165 177 201 213 232
173 205 265 297 239 228 144 128 116 105 104 105 105 101 94 87 85 86 85 80 75 79 72 57 57 73 83 76 79 88 88 86 83 82 112 130 148 157 156 166 183 195 199 216
91 344 337 356 64 73 113 118 112 113 118 117 113 109 102 96 90 86 83 82 80 79 75 64 55 61 65 63 74 79 76 69 66 66 55 47 68 129 160 176 187 199 208 216
134 229 16 8 44 102 97 99 103 106 109 110 108 101 98 94 90 89 87 80 79 82 80 71 61 57 51 55 70 75 71 63 59 65 68 55 42 38 183 211 203 200 210 204
192 204 141 70 58 100 102 96 100 102 94 95 105 108 104 98 93 90 86 82 81 79 78 70 64 56 44 48 66 73 66 53 49 46 47 41 41 12 2 319 282 236 222 212
141 116 104 94 77 91 102 101 96 96 100 99 96 101 101 96 90 89 87 86 86 84 82 76 69 56 40 44 57 61 57 43 38 35 36 30 36 33 353 344 342 297 252 238
106 101 90 84 89 89 96 99 95 92 92 97 100 98 96 91 85 84 84 86 86 82 75 69 63 47 31 47 51 46 39 31 31 17 7 4 355 342 336 326 336 331 321 278
68 92 107 100 88 84 90 95 92 90 91 89 92 94 94 92 89 87 84 83 79 72 64 62 57 25 12 45 47 35 26 13 13 7 4 5 360 360 348 339 308 296 317 334
87 87 92 93 92 90 90 93 96 96 97 94 91 94 98 97 93 85 76 76 77 68 54 57 40 354 13 37 33 20 8 6 10 7 360 1 358 352 335 326 317 320 324 315
102 97 98 99 95 94 92 96 100 100 99 99 101 99 94 89 84 76 67 69 81 75 63 61 37 25 32 35 35 21 9 3 4 7 1 351 344 336 327 333 334 329 315 330
101 107 110 111 109 102 95 92 94 95 100 106 100 92 88 90 93 87 75 71 65 48 27 24 37 37 31 24 21 12 7 2 1 352 347 355 353 352 358 359 353 345 330 343
96 101 99 97 98 98 94 91 90 89 89 92 96 97 96 98 103 95 81 75 69 47 356 5 34 37 24 11 17 13 11 9 7 0 358 3 4 2 358 351 345 341 341 344
84 88 86 83 81 85 86 84 81 72 71 84 88 84 74 64 75 83 79 67 39 297 330 26 37 29 9 2 15 18 20 18 12 4 2 358 350 344 343 339 333 331 331 325
73 76 77 77 74 74 76 80 83 77 73 81 87 87 78 60 65 81 84 60 348 7 45 39 38 17 6 11 19 21 20 17 11 3 353 346 349 349 345 342 340 337 333 327
67 68 70 69 66 59 56 68 79 81 77 72 69 72 73 64 58 61 68 105 328 39 45 28 24 27 24 25 24 20 16 10 2 356 354 357 359 355 348 345 340 336 330 321
69 67 63 62 68 64 51 56 64 73 75 72 68 74 83 76 76 87 35 324 28 49 49 29 22 27 26 27 20 17 11 5 358 358 360 356 350 345 338 336 336 336 329 323
62 59 55 60 68 67 55 44 52 58 62 61 58 63 74 67 37 29 65 36 48 53 43 25 25 24 24 22 14 11 9 4 359 359 360 355 352 349 344 339 338 336 334 334
63 58 63 67 65 62 56 53 55 51 54 50 43 42 48 63 64 29 38 44 47 49 31 20 24 23 21 16 16 12 5 6 5 360 356 353 349 348 345 341 338 338 342 340
73 72 73 74 79 76 68 64 58 48 53 51 36 29 28 29 39 47 51 47 43 41 37 29 26 25 19 16 13 7 3 1 9 11 3 360 357 353 348 349 349 347 344 340
64 61 57 52 47 53 60 62 61 51 51 61 40 16 19 25 37 44 48 46 43 42 39 34 27 20 16 19 18 13 10 11 10 8 5 5 1 356 353 354 350 347 347 346
Height
1460 1454 1453 1453 1453 1453 1458 1462 1470 1465 1462 1457 1454 1452 1450 1451 1453 1456 1460 1463 1466 1469 1472 1475 1478 1481 1484 1487 1490 1493 1495 1498 1501 1504 1506 1509 1511 1513 1515 1517 1519 1521 1523 1525
1459 1452 1452 1453 1451 1449 1450 1452 1455 1457 1458 1451 1450 1451 1451 1451 1453 1456 1458 1461 1464 1467 1469 1472 1474 1477 1480 1483 1486 1490 1492 1494 1497 1500 1502 1505 1508 1510 1511 1514 1516 1517 1519 1521
1466 1457 1454 1462 1455 1452 1452 1450 1451 1456 1454 1449 1451 1453 1452 1452 1454 1456 1458 1460 1463 1464 1467 1469 1472 1474 1477 1479 1483 1486 1488 1491 1494 1496 1499 1502 1504 1506 1508 1510 1512 1512 1514 1516
1469 1466 1474 1462 1449 1448 1449 1450 1448 1448 1448 1448 1450 1453 1454 1454 1455 1457 1458 1459 1461 1463 1465 1468 1470 1473 1475 1478 1480 1483 1485 1488 1491 1493 1495 1498 1500 1502 1504 1506 1507 1509 1510 1512
1471 1472 1466 1456 1451 1452 1453 1454 1449 1448 1448 1450 1450 1453 1457 1457 1457 1456 1457 1459 1461 1463 1464 1467 1469 1471 1474 1476 1478 1480 1483 1485 1487 1489 1492 1494 1496 1498 1500 1501 1502 1504 1505 1507
1468 1470 1471 1461 1451 1450 1452 1458 1451 1449 1449 1450 1451 1458 1463 1461 1459 1458 1459 1461 1462 1464 1465 1466 1468 1470 1472 1474 1476 1478 1480 1483 1485 1487 1488 1490 1492 1494 1495 1496 1497 1499 1500 1502
1467 1469 1464 1455 1450 1449 1459 1459 1453 1450 1450 1450 1453 1457 1462 1462 1460 1460 1461 1463 1463 1465 1465 1466 1467 1469 1471 1473 1475 1477 1479 1482 1483 1484 1486 1487 1489 1491 1491 1492 1492 1494 1496 1497
1466 1470 1468 1453 1450 1452 1453 1451 1452 1451 1453 1454 1456 1459 1462 1463 1463 1463 1464 1465 1466 1466 1467 1468 1469 1470 1471 1472 1474 1476 1479 1481 1482 1483 1484 1485 1486 1487 1488 1489 1490 1491 1492 1493
1464 1465 1457 1454 1453 1451 1450 1450 1451 1452 1455 1457 1459 1462 1464 1466 1466 1467 1468 1469 1469 1469 1470 1471 1471 1472 1472 1473 1475 1476 1478 1479 1480 1482 1483 1483 1484 1485 1486 1487 1487 1488 1488 1489
1461 1459 1456 1454 1453 1452 1451 1451 1452 1454 1457 1459 1461 1463 1466 1468 1469 1470 1471 1472 1473 1473 1473 1474 1475 1474 1474 1475 1476 1477 1478 1478 1479 1480 1481 1482 1483 1483 1483 1484 1485 1485 1485 1485
1461 1459 1457 1455 1454 1454 1454 1454 1455 1458 1460 1462 1463 1465 1468 1471 1472 1473 1474 1475 1476 1476 1477 1478 1478 1478 1478 1478 1478 1478 1479 1479 1479 1480 1480 1481 1481 1482 1482 1482 1482 1482 1482 1483
1461 1458 1458 1458 1457 1456 1456 1457 1459 1460 1463 1465 1467 1470 1472 1474 1475 1476 1477 1478 1479 1480 1480 1481 1481 1481 1480 1480 1480 1480 1480 1480 1480 1480 1480 1480 1480 1480 1479 1480 1480 1480 1479 1480
1456 1457 1458 1460 1460 1460 1460 1461 1463 1464 1466 1469 1472 1474 1475 1477 1479 1480 1481 1482 1483 1483 1484 1484 1483 1483 1483 1482 1481 1481 1481 1480 1480 1480 1480 1479 1479 1479 1479 1479 1479 1478 1477 1477
1458 1459 1461 1463 1464 1464 1464 1466 1468 1470 1472 1474 1476 1478 1479 1481 1482 1483 1484 1485 1486 1486 1486 1486 1485 1485 1485 1484 1483 1482 1482 1481 1480 1480 1479 1479 1479 1478 1478 1477 1477 1476 1475 1474
1462 1462 1464 1466 1468 1469 1470 1471 1472 1475 1477 1479 1481 1482 1483 1484 1485 1487 1488 1488 1488 1488 1488 1488 1487 1487 1486 1485 1484 1483 1482 1481 1481 1480 1479 1478 1478 1477 1476 1476 1475 1474 1473 1472
1466 1467 1468 1470 1471 1473 1475 1475 1477 1479 1481 1482 1484 1485 1486 1487 1488 1489 1490 1490 1489 1489 1489 1489 1488 1488 1487 1486 1485 1483 1482 1481 1480 1479 1478 1477 1476 1475 1475 1474 1472 1471 1470 1468
1469 1471 1472 1474 1476 1477 1478 1480 1481 1483 1484 1485 1487 1488 1489 1490 1490 1491 1491 1491 1491 1491 1490 1489 1489 1488 1487 1486 1484 1483 1482 1480 1479 1478 1477 1476 1475 1473 1472 1471 1469 1468 1466 1465
1472 1474 1475 1477 1478 1480 1482 1483 1485 1486 1487 1488 1489 1490 1491 1491 1491 1492 1492 1492 1492 1491 1491 1490 1489 1488 1486 1485 1484 1482 1481 1479 1478 1477 1475 1474 1473 1471 1469 1468 1466 1464 1462 1461
1476 1478 1479 1481 1482 1484 1485 1487 1488 1489 1489 1490 1491 1491 1492 1492 1492 1492 1492 1492 1491 1490 1490 1489 1488 1487 1485 1484 1482 1481 1479 1478 1476 1474 1473 1471 1470 1468 1466 1464 1462 1460 1458 1456
1480 1481 1483 1484 1485 1487 1488 1489 1490 1490 1491 1491 1492 1492 1492 1492 1492 1492 1491 1491 1490 1490 1489 1488 1487 1486 1484 1482 1481 1479 1477 1475 1473 1472 1470 1468 1466 1464 1462 1461 1459 1457 1454 1452
1483 1484 1486 1487 1488 1489 1490 1491 1491 1491 1492 1492 1492 1492 1492 1492 1492 1491 1490 1490 1490 1489 1488 1487 1486 1484 1482 1481 1479 1477 1475 1473 1471 1469 1467 1465 1463 1461 1459 1457 1455 1452 1450 1448
1487 1488 1489 1489 1490 1491 1492 1492 1492 1492 1492 1492 1492 1492 1492 1491 1491 1491 1490 1490 1489 1488 1487 1485 1484 1482 1481 1479 1477 1475 1473 1471 1468 1466 1464 1462 1460 1457 1455 1453 1451 1448 1446 1444
1489 1490 1491 1491 1492 1493 1493 1493 1493 1492 1492 1492 1492 1492 1491 1491 1490 1490 1489 1489 1488 1486 1485 1483 1482 1480 1478 1476 1474 1472 1470 1468 1466 1463 1461 1459 1456 1454 1452 1450 1447 1445 1442 1439
1492 1492 1493 1493 1493 1493 1493 1493 1493 1493 1492 1492 1492 1491 1491 1490 1489 1489 1488 1487 1486 1484 1483 1481 1480 1478 1476 1474 1472 1469 1467 1465 1463 1460 1458 1456 1454 1451 1449 1446 1444 1441 1438 1435
1493 1493 1494 1494 1494 1494 1494 1494 1493 1493 1493 1492 1492 1491 1490 1489 1489 1487 1486 1485 1484 1482 1480 1479 1477 1475 1473 1471 1469 1467 1465 1462 1460 1458 1456 1453 1451 1449 1446 1443 1441 1438 1435 1432
1494 1494 1494 1494 1494 1494 1494 1494 1493 1493 1492 1492 1491 1490 1489 1488 1487 1486 1485 1483 1482 1480 1478 1477 1475 1473 1471 1469 1467 1465 1463 1460 1458 1456 1454 1451 1449 1446 1444 1441 1438 1436 1433 1430
1495 1495 1495 1495 1495 1494 1494 1494 1493 1492 1492 1491 1490 1489 1488 1487 1486 1484 1483 1481 1480 1478 1477 1475 1473 1471 1469 1467 1465 1463 1461 1459 1456 1454 1452 1450 1447 1445 1442 1439 1437 1434 1431 1427